Regional Weather Roundup
Issued by NWS

Home | Current Version | Previous Version | Text Only | Print | Product List | Glossary Off
Versions: 1 2 3 4 5 6 7 8 9 10 11 12 13 14 15 16 17 18 19 20 21 22 23 24 25 26 27 28 29 30 31 32 33 34 35 36 37 38 39 40 41 42 43 44 45 46 47 48 49 50

000
ASUS43 KLOT 232208
RWRIL

ILLINOIS REGIONAL WEATHER ROUNDUP
NATIONAL WEATHER SERVICE CHICAGO/ROMEOVILLE IL
400 PM CST THU FEB 23 2017

NOTE: "FAIR" INDICATES FEW OR NO CLOUDS BELOW 12,000 FEET WITH NO
SIGNIFICANT WEATHER AND/OR OBSTRUCTIONS TO VISIBILITY.

* THESE STATIONS ARE NOT UNDER NWS QUALITY CONTROL. THEY ALSO MAY NOT
  REPORT WEATHER SUCH AS PRECIPITATION OR FOG.

ILZ001-002-007-009-015-016-024-232300-
NORTHWEST ILLINOIS

CITY           SKY/WX    TMP DP  RH WIND       PRES   REMARKS
MOLINE         CLOUDY    50  45  83 E17G25    29.66F
STERLING*      LGT RAIN  45  42  89 E18       29.73S
SAVANNA*       DRIZZLE   44  41  89 E9        29.76R
$$

ILZ003-004-008-010-011-017-018-232300-
NORTH CENTRAL ILLINOIS

CITY           SKY/WX    TMP DP  RH WIND       PRES   REMARKS
ROCKFORD       LGT RAIN  42  37  82 E15       29.79R
FREEPORT*      LGT RAIN  42  40  93 E15G22    29.77S
ROCHELLE*      DRIZZLE   42  39  88 E13G21    29.77F
DE KALB*       LGT RAIN  40  37  89 E17G23    29.76F
PERU*          LGT RAIN  44  41  88 E18       29.74F
$$

ILZ005-006-012>014-019>023-232300-
NORTHEAST ILLINOIS

CITY           SKY/WX    TMP DP  RH WIND       PRES   REMARKS
CHICAGO-OHARE  CLOUDY    40  34  79 NE17      29.81S
CHICAGO-MIDWAY CLOUDY    41  33  73 NE18      29.80F
AURORA         CLOUDY    43  36  76 NE16G26   29.75F
LANSING*       CLOUDY    39  37  92 NE13      29.80S WCI  32
JOLIET*        LGT RAIN  44  39  82 NE8G17    29.80R
WAUKEGAN       CLOUDY    37  32  82 N16G25    29.80F WCI  28
DUPAGE AIRPORT CLOUDY    41  33  73 NE12      29.80R
KANKAKEE*      LGT RAIN  45  40  81 NE14      29.76S
WHEELING       CLOUDY    38  33  82 NE9       29.84S WCI  31
MORRIS*        RAIN      44  39  83 NE8       29.76F
ROMEOVILLE*    CLOUDY    41  39  91 NE15G22   29.79S
NORTHERLY ISL    N/A     38  35  89 N10         N/A  WCI  31
$$

LMZ740>746-232300-
SOUTHERN LAKE MICHIGAN

STATION/POSITION SKY/WX   TEMP    WIND        PRES    VSBY  WAVE
                          AIR SEA DIR/SP/G                  HT/PER
                          (F)     (DEG/KT/KT) (MB)    (MI)  (FT/S)
HARRISON CRIB              38      10/ 13/ 15   N/A
BURNHAM HARBOR             38      20/ 11/ 19   N/A
CALUMET HARBOR             38     350/  8/ 10 1009.5S
BURNS HARBOR               38      50/ 11/ 12 1010.2F
MICHIGAN CITY              36      20/ 10/ 10   N/A
$$

ILZ025>027-034>036-040-047-049-050-058-095>099-232300-
WEST-CENTRAL ILLINOIS

CITY           SKY/WX    TMP DP  RH WIND       PRES   REMARKS
QUINCY         CLOUDY    54  49  83 E14       29.58F
GALESBURG*     CLOUDY    47  46  93 E14G20    29.65F
MACOMB*        LGT RAIN  48  46  95 E17       29.65F
JACKSONVILLE*  CLOUDY    58  51  77 E17       29.61F
PITTSFIELD*    CLOUDY    56  51  81 E12G17    29.60F
$$

ILZ028>032-037-038-041>044-048-051>054-059>061-232300-
CENTRAL ILLINOIS

CITY           SKY/WX    TMP DP  RH WIND       PRES   REMARKS
PONTIAC        CLOUDY    48  46  93 NE10G18   29.75R
BLOOMINGTON    CLOUDY    53  47  79 NE20      29.69F
DECATUR        CLOUDY    60  53  77 E14       29.65F
PEORIA         CLOUDY    51  47  86 E13       29.68F
LACON*         LGT RAIN  49  47  92 E10G16    29.70F
LINCOLN*       CLOUDY    58  53  81 E15       29.65F
SPRINGFIELD    CLOUDY    60  53  77 E13       29.63F
TAYLORVILLE    CLOUDY    64  55  70 SE14      29.64F
$$

ILZ033-039-045-046-055>057-062-063-232300-
EAST-CENTRAL ILLINOIS

CITY           SKY/WX    TMP DP  RH WIND       PRES   REMARKS
CHAMPAIGN      CLOUDY    60  53  77 NE13      29.68F
RANTOUL*       CLOUDY    61  55  79 E14       29.69F
MATTOON        MOSUNNY   66  55  67 S7        29.66F
PARIS*         CLOUDY    68  56  64 S10       29.69F
$$

ILZ079-100>102-232300-
SOUTHWEST ILLINOIS

CITY           SKY/WX    TMP DP  RH WIND       PRES   REMARKS
ALTON          PTSUNNY   64  55  72 SE15G22   29.60F
BELLEVILLE     MOSUNNY   67  58  74 S12       29.59F
CAHOKIA*       MOSUNNY   67  54  63 SE14G23   29.58F
SPARTA*        PTSUNNY   68  56  65 S13       29.62F
$$

ILZ064>066-069>071-074>076-080>082-084>086-088>090-092>094-232300-
SOUTH-CENTRAL ILLINOIS

CITY           SKY/WX    TMP DP  RH WIND       PRES   REMARKS
CARBONDALE     MOSUNNY   71  55  56 S17G24    29.63F
CAIRO*         MOSUNNY   72  56  56 S18       29.65F
EFFINGHAM*     CLOUDY    67  55  64 S10G18    29.68F
MARION         MOSUNNY   73  55  53 S14       29.66F
MT. VERNON     PTSUNNY   69  54  58 S9        29.65F
CENTRALIA*     PTSUNNY   70  56  60 S8G20     29.63F
SALEM*         PTSUNNY   69  53  57 S12G18    29.65F
METROPOLIS*    MOSUNNY   73  55  51 S15       29.67F
$$

ILZ067-068-072-073-078-083-087-091-232300-
SOUTHEAST ILLINOIS

CITY           SKY/WX    TMP DP  RH WIND       PRES   REMARKS
LAWRENCEVILLE  CLOUDY    69  56  62 S9        29.69S
FLORA*         MOSUNNY   71  55  56 S12       29.67F
FAIRFIELD*     PTSUNNY   69  56  61 S6        29.66F
HARRISBURG*    MOSUNNY   71  56  58 S10       29.67S
ROBINSON*      PTSUNNY   68  55  61 S12       29.70S
CARMI*         MOSUNNY   71  56  58 S10       29.68R
$$

ABBREVIATIONS USED IN REMARKS
   TC - TEMPERATURE IN CELSIUS
  WCI - WIND CHILL INDEX
   HX - HEAT INDEX
  VSB - VISIBILITY
$$





USA.gov is the U.S. government's official web portal to all federal, state and local government web resources and services.